Regional Weather Roundup
Issued by NWS

Home | Current Version | Previous Version | Text Only | Print | Product List | Glossary On
Versions: 1 2 3 4 5 6 7 8 9 10 11 12 13 14 15 16 17 18 19 20 21 22 23 24 25 26 27 28 29 30 31 32 33 34 35 36 37 38 39 40 41 42 43 44 45 46 47 48 49 50
000
ASUS42 KKEY 012210
RWRKEY

FLORIDA REGIONAL WEATHER ROUNDUP FOR THE FLORIDA KEYS
NATIONAL WEATHER SERVICE KEY WEST FLORIDA
600 PM EDT WED APR 01 2015

...SOUTH FLORIDA AND THE KEYS...

CITY           SKY/WX    TMP DP  RH WIND       PRES   REMARKS
FORT MYERS     SUNNY     80  56  43 W12       30.07S
SW REGIONAL AP SUNNY     80  57  45 W10       30.07S
NAPLES         SUNNY     77  63  61 W12       30.08S
MIAMI          MOSUNNY   79  59  50 SE9       30.08S
WEST KENDALL   SUNNY     80  56  43 SE9       30.08R
HOMESTEAD      SUNNY     79  60  51 E9        30.08S
MARATHON       SUNNY     79  62  56 SE7       30.08S
BOCA CHICA NAS MOSUNNY   78  63  59 E10       30.08S
KEY WEST INTL  SUNNY     78  64  61 E10       30.09S

...INTERNATIONAL WEATHER...

CITY           SKY/WX    TMP DP  RH WIND       PRES   REMARKS
NASSAU BAHAMAS MOSUNNY   79  55  44 E5        30.11R
CANCUN MEXICO  MOSUNNY   81  66  61 E10       30.01S
COZUMEL MEXICO MOSUNNY   79  68  69 SE15      29.99S

ADJACENT COASTAL WATERS...

STATION/POSITION TIME  SKY/WX   TEMP    WIND        PRES    WAVE
                                AIR SEA DIR/SP/G            HT/PER
                 (UTC)          (F)     (DEG/KT/KT) (MB)    (FT/S)
PULASKI SHOAL LI 2100            74      80/ 12/ 13 1018.7F
SAND KEY         2150            75     110/ 10/ 13 1018.7F
SOMBRERO KEY     2200            77     130/ 11/ 12 1019.4R
LONG KEY         2200            77 77  140/ 11/ 12 1019.4R
MOLASSES REEF    2200            75 77  130/ 11/ 12 1018.7R
FOWEY ROCKS      NOT AVBL

$$


USA.gov is the U.S. government's official web portal to all federal, state and local government web resources and services.